Location: Newark
(13.6797°N, 8.5297°E)
Time: 21:05:57
(UTC+00:00)

A-11 Canister half - Pass Details

Date: 21 January 2020
Orbit: 1517 x 1683 km, 47.2° (Epoch: 19 February)

Event Time Altitude Azimuth Distance (km) Brightness Sun altitude
Rises 06:34:37 0° 331° (NNW) 4,667 11.1 8.4°
Reaches altitude 10° 06:38:07 10° 341° (NNW) 3,698 10.6 9.2°
Maximum altitude 06:46:14 33° 42° (NE) 2,410 10.4 11.0°
Drops below altitude 10° 06:54:32 10° 102° (ESE) 3,800 13.2 12.8°
Sets 06:58:08 0° 112° (ESE) 4,811 13.6 13.6°
